Los Alamitos, CA

7:07 AM PDT on May 24, 2017 (GMT -0700)
Los Alamitos Army Air Field

Weather History for KSLI - January, 2013

Change the Weather History Date:

Wednesday, January 9, 2013

  Actual Average Record
Temperature  
Mean Temperature 52 °F -  
Max Temperature 64 °F 67 °F 82 °F (2007)
Min Temperature 41 °F 49 °F 39 °F (2012)
Degree Days  
Heating Degree Days 12    
Growing Degree Days 2 (Base 50)    
Moisture  
Dew Point 46 °F    
Average Humidity 96    
Maximum Humidity 100    
Minimum Humidity 51    
Precipitation  
Precipitation 0.00 in - - ()
Sea Level Pressure  
Sea Level Pressure 30.09 in    
Wind  
Wind Speed 2 mph (ESE)    
Max Wind Speed 9 mph    
Max Gust Speed -    
Visibility 4 miles    
Events Fog    
Averages and records for this station are not official NWS values.
T = Trace of Precipitation, MM = Missing Value Source: NWS Daily Summary

Daily Weather History Graph

Daily Weather History Graph

Search for Another Location

Airport or City:

Trip Planner

Search our weather history database for the weather conditions in past years. The results will help you decide how hot, cold, wet, or windy it might be!

Date:

Astronomy

Jan. 09, 2013 Rise Set
Actual Time 6:57 AM PST 5:01 PM PST
Civil Twilight 6:30 AM PST 5:28 PM PST
Nautical Twilight 5:59 AM PST 5:59 PM PST
Astronomical Twilight 5:29 AM PST 6:29 PM PST
Moon 4:41 AM PST (1/9) 3:08 PM PST (1/9)
Length of Visible Light 10h 58m
Length of Day
10h 03m
Waning Crescent, 6% of the Moon is Illuminated
Jan 9
Waning Crescent
Jan 11
New
Jan 18
First Quarter
Jan 26
Full
Feb 3
Last Quarter

Hourly Weather History & Observations

Time (PST) Temp. Windchill Dew Point Humidity Pressure Visibility Wind Dir Wind Speed Gust Speed Precip Events Conditions
12:08 AM 46.4 °F - 46.4 °F 100% 30.10 in 1.0 mi East 2.3 mph - N/A   Clear
12:13 AM 46.4 °F - 46.4 °F 100% 30.10 in 0.8 mi Calm Calm - N/A   Clear
12:18 AM 46.4 °F - 46.4 °F 100% 30.10 in 1.0 mi SSE 1.2 mph - N/A   Clear
12:23 AM 44.6 °F - 44.6 °F 100% 30.10 in 1.8 mi Calm Calm - N/A   Clear
12:28 AM 44.6 °F - 44.6 °F 100% 30.10 in 2.5 mi SSE 2.3 mph - N/A   Clear
12:33 AM 44.6 °F - 44.6 °F 100% 30.10 in 4.0 mi ESE 2.3 mph - N/A   Clear
12:43 AM 44.6 °F - 44.6 °F 100% 30.10 in 2.0 mi ESE 2.3 mph - N/A   Clear
12:53 AM 44.6 °F - 44.6 °F 100% 30.10 in 4.0 mi East 2.3 mph - N/A   Clear
12:58 AM 44.6 °F - 44.6 °F 100% 30.11 in 1.0 mi East 2.3 mph - N/A   Clear
1:03 AM 44.6 °F - 44.6 °F 100% 30.10 in 0.5 mi NE 2.3 mph - N/A Fog Fog
1:23 AM 44.6 °F - 44.6 °F 100% 30.10 in 0.8 mi ENE 2.3 mph - N/A   Clear
1:28 AM 46.4 °F 45.2 °F 46.4 °F 100% 30.10 in 1.2 mi NE 3.5 mph - N/A   Clear
1:33 AM 46.4 °F - 46.4 °F 100% 30.10 in 1.0 mi NNE 1.2 mph - N/A   Clear
1:38 AM 46.4 °F - 46.4 °F 100% 30.10 in 0.5 mi Calm Calm - N/A Fog Fog
1:43 AM 46.4 °F - 46.4 °F 100% 30.10 in 0.8 mi Calm Calm - N/A   Clear
1:48 AM 46.4 °F - 46.4 °F 100% 30.10 in 0.5 mi ENE 2.3 mph - N/A Fog Fog
1:58 AM 43.7 °F - 43.7 °F 100% 30.11 in 0.2 mi North 2.3 mph - N/A Fog Fog
2:03 AM 44.6 °F - 44.6 °F 100% 30.10 in 0.8 mi NNE 2.3 mph - N/A   Clear
2:08 AM 44.6 °F - 44.6 °F 100% 30.10 in 3.0 mi NNE 2.3 mph - N/A   Clear
2:23 AM 44.6 °F - 44.6 °F 100% 30.11 in 2.5 mi Calm Calm - N/A   Clear
2:33 AM 44.6 °F - 44.6 °F 100% 30.11 in 1.8 mi Calm Calm - N/A   Clear
2:38 AM 44.6 °F - 44.6 °F 100% 30.11 in 2.0 mi Calm Calm - N/A   Clear
2:48 AM 42.8 °F - 42.8 °F 100% 30.11 in 1.5 mi Calm Calm - N/A   Clear
2:53 AM 42.8 °F - 42.8 °F 100% 30.11 in 1.2 mi Calm Calm - N/A   Clear
2:58 AM 44.6 °F - 44.6 °F 100% 30.12 in 2.0 mi Calm Calm - N/A   Clear
3:03 AM 44.6 °F - 44.6 °F 100% 30.11 in 1.5 mi Calm Calm - N/A   Clear
3:08 AM 42.8 °F - 42.8 °F 100% 30.10 in 0.8 mi Calm Calm - N/A   Clear
3:13 AM 42.8 °F - 42.8 °F 100% 30.10 in 0.5 mi Calm Calm - N/A Fog Fog
3:18 AM 42.8 °F - 42.8 °F 100% 30.10 in 0.8 mi Calm Calm - N/A   Clear
3:23 AM 42.8 °F - 42.8 °F 100% 30.10 in 1.2 mi Calm Calm - N/A   Clear
3:28 AM 44.6 °F - 44.6 °F 100% 30.09 in 1.5 mi North 2.3 mph - N/A   Clear
3:33 AM 44.6 °F - 44.6 °F 100% 30.10 in 2.0 mi Calm Calm - N/A   Clear
3:38 AM 42.8 °F - 42.8 °F 100% 30.10 in 1.8 mi Calm Calm - N/A   Clear
3:43 AM 42.8 °F - 42.8 °F 100% 30.09 in 0.8 mi Calm Calm - N/A   Clear
3:48 AM 42.8 °F - 42.8 °F 100% 30.09 in 1.2 mi Calm Calm - N/A   Clear
3:53 AM 42.8 °F - 42.8 °F 100% 30.09 in 3.0 mi Calm Calm - N/A   Clear
3:58 AM 42.8 °F - 42.8 °F 100% 30.10 in 0.8 mi NNE 2.3 mph - N/A   Clear
4:03 AM 42.8 °F - 42.8 °F 100% 30.09 in 0.5 mi WNW 2.3 mph - N/A Fog Fog
4:08 AM 41.0 °F - 41.0 °F 100% 30.09 in 0.8 mi NW 2.3 mph - N/A   Clear
4:13 AM 42.8 °F - 42.8 °F 100% 30.08 in 3.0 mi NW 2.3 mph - N/A   Clear
4:58 AM 42.1 °F - 42.1 °F 100% 30.09 in 6.0 mi NNW 2.3 mph - N/A   Clear
5:13 AM 42.8 °F - 42.8 °F 100% 30.09 in 2.5 mi NW 1.2 mph - N/A   Clear
5:18 AM 42.8 °F - 42.8 °F 100% 30.09 in 0.8 mi Calm Calm - N/A   Clear
5:23 AM 42.8 °F - 42.8 °F 100% 30.09 in 0.5 mi Calm Calm - N/A Fog Fog
5:28 AM 42.8 °F - 42.8 °F 100% 30.09 in 0.8 mi Calm Calm - N/A   Clear
5:33 AM 42.8 °F - 42.8 °F 100% 30.10 in 1.0 mi Calm Calm - N/A   Clear
5:38 AM 41.0 °F - 41.0 °F 100% 30.10 in 2.0 mi Calm Calm - N/A   Clear
5:43 AM 41.0 °F - 41.0 °F 100% 30.10 in 3.0 mi Calm Calm - N/A   Clear
5:53 AM 41.0 °F - 41.0 °F 100% 30.10 in 1.8 mi Calm Calm - N/A   Clear
5:58 AM 41.5 °F - 41.5 °F 100% 30.11 in 1.5 mi Calm Calm - N/A   Clear
6:13 AM 42.8 °F - 42.8 °F 100% 30.11 in 2.5 mi Calm Calm - N/A   Partly Cloudy
6:28 AM 42.8 °F - 42.8 °F 100% 30.11 in 0.5 mi Calm Calm - N/A Fog Fog
6:58 AM 41.7 °F - 41.7 °F 100% 30.12 in 6.0 mi NE 2.3 mph - N/A   Scattered Clouds
7:58 AM 42.3 °F - 42.3 °F 100% 30.14 in 10.0 mi NE 2.3 mph - N/A   Mostly Cloudy
8:58 AM 49.6 °F - 49.6 °F 100% 30.14 in 10.0 mi East 3.5 mph - N/A   Mostly Cloudy
9:58 AM 55.2 °F - 55.2 °F 100% 30.14 in 7.0 mi Calm Calm - N/A   Mostly Cloudy
10:58 AM 60.6 °F - 46.2 °F 59% 30.13 in 7.0 mi Variable 4.6 mph - N/A   Mostly Cloudy
11:58 AM 61.5 °F - 47.1 °F 59% 30.11 in 7.0 mi SSW 4.6 mph - N/A   Overcast
12:58 PM 63.1 °F - 46.6 °F 55% 30.07 in 7.0 mi South 3.5 mph - N/A   Overcast
1:58 PM 64.2 °F - 45.9 °F 51% 30.07 in 7.0 mi SSW 5.8 mph - N/A   Mostly Cloudy
2:58 PM 60.1 °F - 51.8 °F 74% 30.06 in 7.0 mi SSW 9.2 mph - N/A   Overcast
3:58 PM 57.6 °F - 54.1 °F 88% 30.06 in 7.0 mi South 8.1 mph - N/A   Overcast
4:25 PM 55.4 °F - 55.4 °F 100% 30.05 in 5.0 mi South 6.9 mph - N/A   Overcast
4:45 PM 55.4 °F - 55.4 °F 100% 30.04 in 3.0 mi South 5.8 mph - N/A   Overcast
4:58 PM 54.3 °F - 54.3 °F 100% 30.05 in 3.0 mi South 5.8 mph - N/A   Overcast
5:58 PM 54.0 °F - 54.0 °F 100% 30.06 in 3.0 mi SE 5.8 mph - N/A   Overcast
6:50 PM 53.6 °F - 53.6 °F 100% 30.05 in 7.0 mi ESE 4.6 mph - N/A   Mostly Cloudy
6:58 PM 54.0 °F - 54.0 °F 100% 30.06 in 7.0 mi ESE 4.6 mph - N/A   Mostly Cloudy
7:08 PM 53.6 °F - 53.6 °F 100% 30.06 in 10.0 mi SE 3.5 mph - N/A   Mostly Cloudy
7:58 PM 54.5 °F - 54.5 °F 100% 30.06 in 10.0 mi SE 3.5 mph - N/A   Overcast
8:23 PM 55.4 °F - 51.8 °F 88% 30.05 in 10.0 mi SE 3.5 mph - N/A   Overcast
8:58 PM 55.4 °F - 49.8 °F 81% 30.04 in 10.0 mi South 4.6 mph - N/A   Overcast
9:43 PM 55.4 °F - 50.0 °F 82% 30.04 in 10.0 mi East 4.6 mph - N/A   Overcast
9:58 PM 54.5 °F - 49.3 °F 83% 30.05 in 10.0 mi ESE 3.5 mph - N/A   Overcast
10:58 PM 54.7 °F - 48.7 °F 80% 30.05 in 10.0 mi SE 2.3 mph - N/A   Overcast
11:03 PM 55.4 °F - 48.2 °F 77% 30.04 in 10.0 mi SSE 3.5 mph - N/A   Overcast
11:58 PM 54.1 °F - 49.6 °F 85% 30.03 in 10.0 mi East 2.3 mph - N/A   Overcast